Regional Weather Roundup
Issued by NWS Newport/Morehead, NC

Current Version | Previous Version | Graphics & Text | Print | Product List | Glossary On
Versions: 1 2 3 4 5 6 7 8 9 10 11 12 13 14 15 16 17 18 19 20 21 22 23 24 25 26 27 28 29 30 31 32 33 34 35 36 37 38 39 40 41 42
000 ASUS42 KMHX 211014 RWRMHX WEATHER ROUNDUP FOR EASTERN NORTH CAROLINA NATIONAL WEATHER SERVICE NEWPORT/MOREHEAD CITY NC 600 AM EDT SAT APR 21 2018 NOTE: "FAIR" INDICATES FEW OR NO CLOUDS BELOW 12,000 FEET WITH NO SIGNIFICANT WEATHER AND/OR OBSTRUCTIONS TO VISIBILITY NCZ015>017-031-032-045>047-102-103-211100- NORTH COAST CITY SKY/WX TMP DP RH WIND PRES REMARKS EDENTON FAIR 38 36 91 CALM 30.42R ELIZABETH CITY FAIR 40 39 97 NW3 30.42R KITTY HAWK FAIR 43 37 79 CALM 30.40R MANTEO FAIR 37 35 94 CALM 30.42R $$ NCZ045>047-081-094-103-104-211100- CENTRAL COAST CITY SKY/WX TMP DP RH WIND PRES REMARKS FRISCO FAIR 46 37 71 NE5 30.39R $$ NCZ095-097-098-100-101-211100- SOUTHERN COAST CITY SKY/WX TMP DP RH WIND PRES REMARKS BEAUFORT FAIR 45 40 82 NE6 30.39R CEDAR ISLAND NOT AVBL JACKSONVILLE FAIR 46 43 89 VRB3 30.39R PINEY ISLAND NOT AVBL WILMINGTON FAIR 40 38 93 NE5 30.37R $$ NCZ011>013-027>030-043-044-078>080-089-090>093-098-211100- COASTAL PLAIN CITY SKY/WX TMP DP RH WIND PRES REMARKS AHOSKIE FAIR 35 35 100 CALM 30.43R CLINTON FAIR 39 38 97 CALM 30.40R ELIZABETHTOWN FAIR 39 37 94 MISG 30.38R GOLDSBORO FAIR 37 35 89 E5 30.39R GREENVILLE FAIR 36 36 100 CALM 30.41R HAVELOCK NOT AVBL KENANSVILLE FAIR 36 34 93 CALM 30.40R KINSTON FAIR 38 37 94 N3 30.42R NEW BERN FAIR 41 40 96 CALM 30.41R RICHLANDS FAIR 39 38 96 N6 30.40R ROCKY MOUNT FAIR 37 36 96 CALM 30.42R WASHINGTON FAIR 38 37 94 CALM 30.41R WHITEVILLE FAIR 40 39 96 CALM 30.37R $$ AMZ130-135-150-152-154-156-158-170-250-252-270-ANZ085-086-088-633-658-670-211100- MARINE OBSERVATIONS STATION/POSITION TIME TEMP WIND PRES WAVE SWELL AIR SEA DIR/SP/G HT/PER HT/PER (UTC) (F) (DEG/KT/KT) (MB) (FT/S) (FT/S) CHESAPEAKE LIGHT NOT AVBL 64 E VA BEACH 0950 48 48 10/ 12/ 14 1030.2 2/ 7 2/ 7 DUCK 0942 49 52 350/ 7/ 8 1029.3 2 E DUCK 1000 51 N/A 2/13 2/13 OREGON INLET 0942 46 54 340/ 4/ 5 1029.4 13E OREGON INLT 0948 50 N/A 3/ 7 3/ 7 HATTERAS CG 0942 52 61 50/ 5/ 8 1028.7 DIAMOND BUOY 1000 56 69 20/ 12/ 17 1028.9 CAPE LOOKOUT 1000 60/ 11/ 12 1029.0 BEAUFORT LAB 0942 48 62 30/ 4/ 6 1028.9 30 SE NEW RVR IN 0908 59 65 100/ 8/ 14 1028.1 30 SE NEW RVR IN 0930 65 N/A 3/ 8 27 SE WRIGHTSVLE 0908 61 66 90/ 14/ 21 1027.9 5 SE WRIGHTSVLE 0908 59 60 90/ 10/ 12 1027.7 225 S CAPE HAT 1000 63 71 50/ 14/ 17 1025.4 41 SE CHARLESTON 1000 63 67 70/ 17/ 21 1025.9 $$

USA.gov is the U.S. government's official web portal to all federal, state and local government web resources and services.